[[{"header":{"parameterUnit":"m.s-1","parameterCategory":1,"la1":30.2992,"la2":30.254,"lo1":-89.0895,"lo2":-89.0443,"dy":0.0025,"dx":0.0025,"nx":19,"ny":19,"refTime":"2026-05-13T21:00:00:Z","depth":0,"parameterNumber":2,"parameterNumberName":"U-component_of_WINDS"},"data":[0,0,0,-0.676,-0.6758,-0.6664,-0.6664,-0.6544,-0.6543,0,0,0,0,0,0,0,0,0,0,0,-0.679,-0.679,-0.676,-0.6758,-0.6664,-0.6664,-0.6545,-0.6543,0,0,0,0,0,0,0,0,0,0,0,-0.6791,-0.679,-0.6789,-0.6757,-0.6664,-0.6664,-0.6545,-0.6615,0,0,0,0,0,0,0,0,0,0,-0.6706,-0.6737,-0.679,-0.6789,-0.6757,-0.6664,-0.6664,-0.6618,-0.661,-0.6588,0,-0.6571,0,-0.6555,-0.6536,-0.6535,0,0,0,-0.6755,-0.6744,-0.6716,-0.6789,-0.6756,-0.6664,-0.6706,-0.6614,-0.6605,-0.6578,-0.6569,-0.6564,-0.6553,-0.6535,-0.6534,-0.6416,-0.6415,0,0,-0.676,-0.6775,-0.6722,-0.671,-0.6728,-0.6709,-0.6703,-0.6609,-0.6599,-0.6568,-0.6562,-0.6551,-0.6534,-0.6533,-0.6416,-0.6415,0,0,0,-0.6777,-0.6778,-0.6753,-0.6715,-0.6699,-0.6706,-0.6699,-0.6603,-0.6594,-0.656,-0.655,-0.6534,-0.6532,-0.6416,-0.6416,-0.6406,0,0,0,-0.678,-0.6788,-0.6755,-0.6763,-0.6701,-0.665,-0.6696,-0.66,-0.6589,-0.6551,-0.6533,-0.6531,-0.6417,-0.6416,-0.6408,-0.6399,0,0,0,-0.6795,-0.679,-0.6777,-0.6764,-0.6724,-0.6652,-0.6637,-0.6598,-0.6583,-0.6535,-0.6531,-0.6417,-0.6416,-0.6409,-0.6401,-0.6369,0,0,0,-0.6816,-0.6772,-0.6778,-0.6724,-0.6725,-0.6648,-0.6637,-0.6578,-0.6537,-0.6533,-0.6417,-0.6416,-0.6409,-0.6402,-0.637,-0.6343,-0.6334,0,0,-0.6768,-0.6766,-0.6733,-0.6736,-0.6661,-0.6661,-0.6583,-0.6531,-0.6514,-0.6449,-0.6446,-0.6407,-0.6401,-0.6369,-0.6283,-0.6276,0,0,0,-0.6723,-0.6699,-0.6676,-0.6637,-0.6597,-0.656,-0.6519,-0.6499,-0.6443,-0.6484,-0.6389,-0.6384,-0.6365,-0.6351,-0.6345,-0.6326,-0.6411,-0.6411,-0.6411,-0.6673,-0.6653,-0.6596,-0.6564,-0.6526,-0.6483,-0.6449,-0.6415,-0.6406,-0.6384,-0.6363,-0.6314,-0.6298,-0.6293,-0.6274,-0.635,-0.635,-0.635,-0.635,-0.6598,-0.6559,-0.6548,-0.6489,-0.6467,-0.6416,-0.6371,-0.6366,-0.6314,-0.6328,-0.631,-0.6325,-0.6286,-0.6268,-0.6349,-0.6349,-0.6349,-0.6349,-0.6349,-0.6561,-0.6538,-0.6516,-0.6456,-0.6411,-0.638,-0.6329,-0.6312,-0.6295,-0.6277,-0.6251,-0.6251,-0.6246,-0.6267,-0.6267,-0.6267,-0.6266,-0.6266,-0.6266,-0.653,-0.6505,-0.6465,-0.6417,-0.6388,-0.6348,-0.6303,-0.6274,-0.6236,-0.6226,-0.6226,-0.6216,-0.6288,-0.6304,-0.6263,-0.6264,-0.6264,-0.6264,-0.6265,-0.6455,-0.6469,-0.6408,-0.6379,-0.6319,-0.6274,-0.6253,-0.6193,-0.6166,-0.6141,-0.6136,-0.6193,-0.6189,-0.6194,-0.6207,-0.6143,-0.6143,-0.6143,-0.6143,-0.6421,-0.6419,-0.635,-0.6304,-0.6258,-0.6232,-0.6159,-0.6122,-0.6087,-0.6068,-0.6075,-0.6092,-0.6098,-0.609,-0.6097,-0.6109,-0.6022,-0.6022,-0.6021,-0.6372,-0.6364,-0.6307,-0.6273,-0.6225,-0.6183,-0.6113,-0.6058,-0.6021,-0.6016,-0.6051,-0.6056,-0.6084,-0.6094,-0.6088,-0.6099,-0.612,0,0]},{"header":{"parameterUnit":"m.s-1","parameterCategory":1,"la1":30.2992,"la2":30.254,"lo1":-89.0895,"lo2":-89.0443,"dy":0.0025,"dx":0.0025,"nx":19,"ny":19,"refTime":"2026-05-13T21:00:00:Z","depth":0,"parameterNumber":3,"parameterNumberName":"V-component_of_WINDS"},"data":[0,0,0,-1.4258,-1.4259,-1.4339,-1.434,-1.4415,-1.4416,0,0,0,0,0,0,0,0,0,0,0,-1.4219,-1.4219,-1.4257,-1.4259,-1.4339,-1.434,-1.4415,-1.4416,0,0,0,0,0,0,0,0,0,0,0,-1.4219,-1.4219,-1.4219,-1.4259,-1.4339,-1.434,-1.4415,-1.4364,0,0,0,0,0,0,0,0,0,0,-1.429,-1.4241,-1.4219,-1.4219,-1.426,-1.4339,-1.434,-1.4362,-1.4367,-1.4368,0,-1.4366,0,-1.4392,-1.4419,-1.4419,0,0,0,-1.4269,-1.4236,-1.4271,-1.4219,-1.426,-1.4339,-1.4306,-1.4365,-1.4371,-1.4374,-1.4367,-1.4371,-1.4393,-1.4419,-1.442,-1.4393,-1.4392,0,0,-1.4265,-1.4225,-1.4267,-1.4274,-1.4262,-1.4303,-1.4308,-1.4369,-1.4358,-1.4368,-1.4373,-1.4395,-1.442,-1.442,-1.4394,-1.4393,0,0,0,-1.4245,-1.4221,-1.4256,-1.4271,-1.4287,-1.4305,-1.4311,-1.4355,-1.437,-1.4374,-1.4395,-1.442,-1.4421,-1.4394,-1.4393,-1.4322,0,0,0,-1.4243,-1.421,-1.4253,-1.4229,-1.4286,-1.4322,-1.4295,-1.4365,-1.4374,-1.4395,-1.442,-1.4421,-1.4395,-1.4394,-1.4325,-1.4293,0,0,0,-1.4219,-1.4207,-1.4214,-1.4227,-1.426,-1.4322,-1.4341,-1.4368,-1.4386,-1.4419,-1.4421,-1.4396,-1.4394,-1.4329,-1.4299,-1.4272,0,0,0,-1.418,-1.415,-1.4212,-1.4186,-1.4259,-1.4279,-1.4341,-1.4358,-1.4378,-1.442,-1.4395,-1.4394,-1.433,-1.4302,-1.4275,-1.424,-1.4222,0,0,-1.4119,-1.4141,-1.4129,-1.4187,-1.4185,-1.427,-1.4258,-1.4314,-1.4354,-1.4377,-1.4377,-1.4324,-1.4299,-1.4273,-1.4146,-1.4132,0,0,0,-1.4095,-1.4085,-1.4094,-1.4112,-1.4156,-1.4189,-1.4253,-1.4274,-1.4296,-1.4358,-1.4311,-1.4297,-1.4284,-1.4268,-1.4256,-1.4245,-1.4386,-1.4386,-1.4386,-1.3946,-1.4001,-1.3983,-1.4047,-1.4064,-1.413,-1.4148,-1.4187,-1.4236,-1.4224,-1.4229,-1.4146,-1.4127,-1.4118,-1.4106,-1.4219,-1.4219,-1.4219,-1.4219,-1.3857,-1.385,-1.3919,-1.3925,-1.3982,-1.3989,-1.4052,-1.4086,-1.4099,-1.4147,-1.4137,-1.4181,-1.4101,-1.4093,-1.4214,-1.4215,-1.4215,-1.4216,-1.4216,-1.3761,-1.3767,-1.3796,-1.3828,-1.3846,-1.3913,-1.3922,-1.3975,-1.4024,-1.4015,-1.4025,-1.4026,-1.403,-1.4017,-1.4017,-1.4017,-1.4016,-1.4016,-1.4016,-1.3649,-1.3683,-1.3685,-1.373,-1.3749,-1.378,-1.3848,-1.3867,-1.3901,-1.3938,-1.3939,-1.3986,-1.4086,-1.4106,-1.4011,-1.4012,-1.4013,-1.4013,-1.4014,-1.353,-1.3566,-1.3568,-1.3587,-1.3644,-1.3657,-1.3727,-1.3761,-1.3785,-1.3787,-1.384,-1.3906,-1.3931,-1.3941,-1.3958,-1.383,-1.383,-1.383,-1.383,-1.3445,-1.3465,-1.3479,-1.3505,-1.3537,-1.36,-1.3599,-1.3652,-1.3712,-1.3729,-1.3757,-1.3787,-1.3795,-1.3815,-1.3827,-1.3844,-1.369,-1.369,-1.369,-1.3373,-1.3399,-1.3387,-1.3448,-1.3497,-1.3537,-1.3537,-1.3563,-1.3639,-1.3685,-1.3743,-1.3749,-1.3798,-1.3812,-1.3853,-1.3872,-1.3904,0,0]}]]